sat.trackr.live / text

‹ back to catalog

KUIPER-00413

NORAD 68928 · 2026-098K

PAYLOAD ACTIVE UNKNOWN

§ Identity

Operator
Country
US
Launch date
2026-04-30
Launch site
FRGUI
Launch vehicle
Mass (kg)
RCS (m²)

External: N2YO · Heavens-Above · Gunter

§ Orbital elements

Epoch: 2026-05-24T11:06:27.550368Z

Period
94.13 min
Inclination
51.8728°
Eccentricity
0.0025180
Mean motion
15.29798653 rev/d
Perigee alt
459.2 km
Apogee alt
493.7 km
Semi-major
6,854.6 km
B*
2.2273e-5
RAAN
182.7284°
Arg perigee
76.1296°
Mean anomaly
284.2486°
Rev number
369

§ Raw data

KUIPER-004131 68928U 26098K   26144.46281887  .00000282  00000+0  22273-4 0  99902 68928  51.8728 182.7284 0025180  76.1296 284.2486 15.29798653  3692

JSON: /api/v1/satellites/68928 · /tle

For live sub-satellite position, see the globe view (requires WebGL).

§ Visibility from observer

Set your observer location to see the next 7 days of passes ≥ 10°. The values pass through the URL so the page stays shareable.

No JS? Fill the form by hand. The geolocation button needs JavaScript.